Location: Oshawa
(43.9000°N, 78.8670°W)
Time: 11:24:46
(UTC-04:00)

Explorer 11/Cluster Stage 4 - Visible Passes

Search period start: 29 May 2016 00:00
Search period end: 08 June 2016 00:00
Orbit: 467 x 1266 km, 28.8° (Epoch: 28 May)

Date Brightness Start Highest point End Pass type
(mag) Time Alt. Az. Time Alt. Az. Time Alt. Az.
30 May 9.0 04:54:32 10° SSW 04:59:48 19° SSE 05:05:11 10° ESE visible
31 May 8.9 04:44:25 10° SSW 04:49:50 20° SSE 04:55:29 10° ESE visible
01 Jun 8.8 04:34:23 10° SSW 04:39:53 21° SSE 04:45:43 10° ESE visible
02 Jun 9.2 02:42:51 10° SE 02:42:51 10° SE 02:43:35 10° SE visible
02 Jun 8.7 04:25:03 12° SSW 04:29:57 22° SSE 04:35:53 10° ESE visible
03 Jun 9.1 02:33:32 11° SE 02:33:32 11° SE 02:34:32 10° SE visible
03 Jun 8.6 04:15:43 14° SSW 04:20:02 23° SSE 04:26:00 10° ESE visible
04 Jun 9.1 02:24:14 11° SE 02:24:14 11° SE 02:25:07 10° SE visible
04 Jun 8.5 04:06:26 16° SSW 04:10:07 23° S 04:16:03 10° ESE visible
05 Jun 9.1 02:14:59 11° SE 02:14:59 11° SE 02:15:31 10° SE visible
05 Jun 8.4 03:57:11 18° SSW 04:00:15 23° S 04:06:05 10° ESE visible
06 Jun 9.2 02:05:47 10° SE 02:05:47 10° SE 02:05:49 10° SE visible
06 Jun 8.3 03:47:59 19° SSW 03:50:22 23° S 03:56:04 10° SE visible
07 Jun 8.2 03:38:53 20° SSW 03:40:31 22° S 03:46:00 10° SE visible
